| time (UTC) | temp C | wind direction | speed KPH | gust KPH | rain 1hr cm | rain 24hr cm | rain mn cm | humidity % | barometer mb |
| 20260507000039 | 8 | 0.0 | 0.0 | 0.00 | 0.00 | 0.00 | 89 | 1005.4 | |
| 20260506234541 | 8 | 0.0 | 0.0 | 0.00 | 0.00 | 0.00 | 90 | 1005.1 | |
| 20260506233029 | 9 | 0.0 | 0.0 | 0.00 | 0.00 | 0.00 | 89 | 1004.9 | |
| 20260506231526 | 11 | 0.0 | 0.0 | 0.00 | 0.00 | 0.00 | 88 | 1004.7 | |
| 20260506230021 | 12 | 0.0 | 0.0 | 0.00 | 0.00 | 0.00 | 88 | 1004.4 | |
| 20260506224524 | 13 | 0.0 | 0.0 | 0.00 | 0.00 | 0.00 | 87 | 1004.0 | |
| 20260506223014 | 15 | 0.0 | 0.0 | 0.00 | 0.00 | 0.00 | 90 | 1003.6 | |
| 20260506221514 | 15 | 0.0 | 0.0 | 0.00 | 0.00 | 0.00 | 91 | 1003.2 | |
| 20260506220014 | 15 | 0.0 | 0.0 | 0.00 | 0.00 | 0.00 | 91 | 1003.2 | |
| 20260506214513 | 15 | 0.0 | 0.0 | 0.00 | 0.00 | 0.00 | 91 | 1003.1 | |
| 20260506213019 | 14 | 0.0 | 0.0 | 0.00 | 0.00 | 0.00 | 91 | 1002.9 | |
| 20260506211517 | 15 | 0.0 | 0.0 | 0.00 | 0.00 | 0.00 | 91 | 1002.8 | |
| 20260506210015 | 14 | 0.0 | 0.0 | 0.00 | 0.00 | 0.00 | 91 | 1002.7 | |
| 20260506204511 | 14 | 0.0 | 0.0 | 0.00 | 0.00 | 0.00 | 91 | 1002.7 | |
| 20260506203011 | 14 | 0.0 | 0.0 | 0.00 | 0.00 | 0.00 | 91 | 1002.5 | |
| 20260506201513 | 14 | 0.0 | 0.0 | 0.00 | 0.00 | 0.00 | 91 | 1002.6 | |
| 20260506200012 | 15 | 0.0 | 0.0 | 0.00 | 0.00 | 0.00 | 91 | 1002.7 | |
| 20260506194509 | 15 | 0.0 | 0.0 | 0.00 | 0.00 | 0.00 | 92 | 1002.8 | |
| 20260506193007 | 15 | 0.0 | 0.0 | 0.00 | 0.00 | 0.00 | 92 | 1002.8 | |
| 20260506191507 | 14 | 0.0 | 0.0 | 0.00 | 0.00 | 0.00 | 92 | 1002.9 | |
| 20260506190006 | 14 | 0.0 | 0.0 | 0.00 | 0.00 | 0.00 | 92 | 1003.0 | |
| 20260506184504 | 14 | 0.0 | 0.0 | 0.00 | 0.00 | 0.00 | 92 | 1003.2 | |
| 20260506183002 | 14 | 0.0 | 0.0 | 0.00 | 0.00 | 0.00 | 92 | 1003.3 | |
| 20260506181502 | 14 | 0.0 | 0.0 | 0.00 | 0.00 | 0.00 | 92 | 1003.5 | |
| 20260506180101 | 13 | 0.0 | 0.0 | 0.00 | 0.00 | 0.00 | 92 | 1003.5 | |
| 20260506174610 | 13 | 0.0 | 0.0 | 0.00 | 0.00 | 0.00 | 92 | 1003.6 | |
| 20260506173100 | 13 | 0.0 | 0.0 | 0.00 | 0.00 | 0.00 | 91 | 1003.6 | |
| 20260506171610 | 13 | 0.0 | 0.0 | 0.00 | 0.00 | 0.00 | 91 | 1003.6 | |
| 20260506170104 | 13 | 0.0 | 0.0 | 0.00 | 0.00 | 0.00 | 91 | 1003.4 | |
| 20260506164600 | 13 | 0.0 | 0.0 | 0.00 | 0.00 | 0.00 | 91 | 1003.5 | |
| 20260506163126 | 13 | 0.0 | 0.0 | 0.00 | 0.00 | 0.00 | 91 | 1003.6 | |
| 20260506161555 | 13 | 0.0 | 0.0 | 0.00 | 0.00 | 0.00 | 91 | 1003.6 | |
| 20260506160055 | 13 | 0.0 | 0.0 | 0.00 | 0.00 | 0.00 | 91 | 1003.7 | |
| 20260506154554 | 13 | 0.0 | 0.0 | 0.00 | 0.00 | 0.00 | 91 | 1003.8 | |
| 20260506153102 | 13 | 0.0 | 0.0 | 0.00 | 0.00 | 0.00 | 90 | 1004.5 | |
| 20260506151551 | 13 | 0.0 | 0.0 | 0.00 | 0.00 | 0.00 | 91 | 1004.1 | |
| 20260506150051 | 13 | 0.0 | 0.0 | 0.00 | 0.00 | 0.00 | 90 | 1003.8 | |
| 20260506144548 | 13 | 0.0 | 0.0 | 0.00 | 0.00 | 0.00 | 90 | 1004.0 | |
| 20260506143047 | 14 | 0.0 | 0.0 | 0.00 | 0.00 | 0.00 | 90 | 1004.2 | |
| 20260506141548 | 14 | 0.0 | 0.0 | 0.00 | 0.00 | 0.00 | 89 | 1004.4 | |
| 20260506140046 | 14 | 0.0 | 0.0 | 0.00 | 0.00 | 0.00 | 89 | 1004.5 | |
| 20260506134543 | 14 | 0.0 | 0.0 | 0.00 | 0.00 | 0.00 | 88 | 1004.6 | |
| 20260506133046 | 14 | 0.0 | 0.0 | 0.00 | 0.00 | 0.00 | 88 | 1004.8 | |
| 20260506131541 | 14 | 0.0 | 0.0 | 0.00 | 0.00 | 0.00 | 87 | 1004.8 | |
| 20260506130042 | 14 | 0.0 | 0.0 | 0.00 | 0.00 | 0.00 | 87 | 1004.8 | |
| 20260506124544 | 14 | 0.0 | 0.0 | 0.00 | 0.00 | 0.00 | 87 | 1004.6 | |
| 20260506123040 | 14 | 0.0 | 0.0 | 0.00 | 0.00 | 0.00 | 86 | 1004.6 | |
| 20260506121547 | 14 | 0.0 | 0.0 | 0.00 | 0.00 | 0.00 | 86 | 1004.6 | |
| 20260506120040 | 15 | 0.0 | 0.0 | 0.00 | 0.00 | 0.00 | 84 | 1004.6 | |
| 20260506114535 | 15 | 0.0 | 0.0 | 0.00 | 0.00 | 0.00 | 82 | 1004.8 | |
| 20260506113035 | 15 | 0.0 | 0.0 | 0.00 | 0.00 | 0.00 | 80 | 1004.5 | |
| 20260506111535 | 15 | 0.0 | 0.0 | 0.00 | 0.00 | 0.00 | 79 | 1004.7 | |
| 20260506110036 | 15 | 0.0 | 0.0 | 0.00 | 0.00 | 0.00 | 79 | 1004.6 | |
| 20260506104534 | 15 | 0.0 | 0.0 | 0.00 | 0.00 | 0.00 | 78 | 1004.2 | |
| 20260506103032 | 15 | 0.0 | 0.0 | 0.00 | 0.00 | 0.00 | 77 | 1004.2 | |
| 20260506101531 | 15 | 0.0 | 0.0 | 0.00 | 0.00 | 0.00 | 76 | 1004.2 | |
| 20260506100031 | 15 | 0.0 | 0.0 | 0.00 | 0.00 | 0.00 | 75 | 1004.2 | |
| 20260506094527 | 15 | 0.0 | 0.0 | 0.00 | 0.00 | 0.00 | 74 | 1004.4 | |
| 20260506093027 | 15 | 0.0 | 0.0 | 0.00 | 0.00 | 0.00 | 74 | 1004.3 | |
| 20260506091526 | 15 | 0.0 | 0.0 | 0.00 | 0.00 | 0.00 | 73 | 1004.3 | |
| 20260506090025 | 15 | 0.0 | 0.0 | 0.00 | 0.00 | 0.00 | 72 | 1004.3 | |
| 20260506084533 | 15 | 0.0 | 0.0 | 0.00 | 0.00 | 0.00 | 71 | 1004.5 | |
| 20260506083025 | 15 | 0.0 | 0.0 | 0.00 | 0.00 | 0.00 | 70 | 1004.7 | |
| 20260506081520 | 16 | 0.0 | 0.0 | 0.00 | 0.00 | 0.00 | 69 | 1004.6 | |
| 20260506080122 | 16 | 0.0 | 0.0 | 0.00 | 0.00 | 0.00 | 69 | 1004.6 | |
| 20260506073017 | 16 | 0.0 | 0.0 | 0.00 | 0.00 | 0.00 | 68 | 1004.8 | |
| 20260506071516 | 16 | 0.0 | 0.0 | 0.00 | 0.00 | 0.00 | 67 | 1004.8 | |
| 20260506061509 | 16 | 0.0 | 0.0 | 0.00 | 0.00 | 0.00 | 66 | 1005.5 | |
| 20260506044601 | 16 | 0.0 | 0.0 | 0.00 | 0.00 | 0.00 | 63 | 1005.9 | |
| 20260506043101 | 16 | 0.0 | 0.0 | 0.00 | 0.00 | 0.00 | 63 | 1005.9 | |
| 20260506041605 | 17 | 0.0 | 0.0 | 0.00 | 0.00 | 0.00 | 62 | 1006.0 | |
| 20260506040055 | 17 | 0.0 | 0.0 | 0.00 | 0.00 | 0.00 | 61 | 1006.0 | |
| 20260506034556 | 17 | 0.0 | 0.0 | 0.00 | 0.00 | 0.00 | 60 | 1006.0 | |
| 20260506033054 | 17 | 0.0 | 0.0 | 0.00 | 0.00 | 0.00 | 59 | 1006.0 | |
| 20260506031554 | 17 | 0.0 | 0.0 | 0.00 | 0.00 | 0.00 | 58 | 1005.9 | |
| 20260506030053 | 18 | 0.0 | 0.0 | 0.00 | 0.00 | 0.00 | 57 | 1006.0 | |
| 20260506024556 | 18 | 0.0 | 0.0 | 0.00 | 0.00 | 0.00 | 56 | 1006.0 | |
| 20260506023107 | 18 | 0.0 | 0.0 | 0.00 | 0.00 | 0.00 | 56 | 1006.1 | |
| 20260506021552 | 19 | 0.0 | 0.0 | 0.00 | 0.00 | 0.00 | 54 | 1006.2 | |
| 20260506020055 | 19 | 0.0 | 0.0 | 0.00 | 0.00 | 0.00 | 52 | 1006.1 | |
| 20260506014551 | 19 | 0.0 | 0.0 | 0.00 | 0.00 | 0.00 | 53 | 1005.9 | |
| 20260506013055 | 20 | 0.0 | 0.0 | 0.00 | 0.00 | 0.00 | 53 | 1005.7 | |
| 20260506011550 | 20 | 0.0 | 0.0 | 0.00 | 0.00 | 0.00 | 52 | 1005.7 | |
| 20260506010049 | 20 | 0.0 | 0.0 | 0.00 | 0.00 | 0.00 | 52 | 1005.5 | |
| 20260506004547 | 20 | 0.0 | 0.0 | 0.00 | 0.00 | 0.00 | 50 | 1005.4 | |
| 20260506003050 | 20 | 0.0 | 0.0 | 0.00 | 0.00 | 0.00 | 49 | 1005.2 | |
| 20260506001554 | 20 | 0.0 | 0.0 | 0.00 | 0.00 | 0.00 | 49 | 1005.1 |